GFSNW_prec_precacc24_213.txt.gz
Total_Precipitation_Accumulation
0.67 0.76 0.85 0.82 0.85 1.06 1.36 1.29 1.25 1.17 1.10 1.47 1.38 0.60 0.13 0.05 0.01 0.00 0.01 0.01 0.01 0.01 0.00 0.01 0.00 0.00 0.00 0.00 0.00 0.01 0.01 0.06 0.04 0.00 0.00 0.00 0.02 0.13 0.34 0.45 0.43 0.31 0.27 0.13
0.48 0.56 0.70 0.60 0.64 0.68 0.99 1.21 1.38 1.18 1.06 0.96 0.56 0.19 0.07 0.06 0.05 0.02 0.02 0.02 0.05 0.03 0.01 0.03 0.01 0.01 0.00 0.00 0.00 0.01 0.02 0.05 0.04 0.01 0.00 0.03 0.09 0.12 0.20 0.31 0.37 0.24 0.44 0.15
0.32 0.45 0.50 0.53 0.51 0.55 0.68 0.98 1.23 1.13 0.92 0.55 0.18 0.13 0.12 0.11 0.10 0.05 0.02 0.02 0.03 0.06 0.06 0.03 0.03 0.01 0.00 0.00 0.00 0.00 0.01 0.01 0.02 0.01 0.00 0.03 0.02 0.02 0.05 0.16 0.31 0.16 0.17 0.03
0.22 0.33 0.45 0.52 0.50 0.62 0.53 0.74 0.87 0.49 0.52 0.36 0.16 0.11 0.11 0.11 0.18 0.09 0.04 0.04 0.03 0.04 0.09 0.07 0.03 0.01 0.01 0.01 0.00 0.00 0.02 0.03 0.01 0.00 0.01 0.01 0.01 0.00 0.00 0.01 0.04 0.11 0.04 0.01
0.25 0.32 0.50 0.60 0.67 0.55 0.47 0.63 0.45 0.22 0.10 0.12 0.20 0.27 0.25 0.16 0.20 0.15 0.11 0.08 0.08 0.08 0.11 0.10 0.08 0.05 0.04 0.02 0.02 0.05 0.09 0.21 0.16 0.09 0.02 0.02 0.04 0.01 0.00 0.00 0.00 0.01 0.01 0.02
0.33 0.38 0.42 0.59 0.66 0.59 0.53 0.47 0.16 0.12 0.30 0.28 0.30 0.26 0.14 0.11 0.10 0.14 0.08 0.06 0.11 0.14 0.10 0.04 0.03 0.02 0.03 0.02 0.03 0.05 0.09 0.14 0.16 0.14 0.03 0.08 0.13 0.00 0.00 0.00 0.00 0.01 0.03 0.02
0.30 0.31 0.32 0.35 0.41 0.42 0.40 0.31 0.16 0.20 0.40 0.26 0.17 0.11 0.11 0.11 0.10 0.10 0.07 0.06 0.05 0.04 0.01 0.00 0.00 0.00 0.00 0.00 0.00 0.01 0.03 0.04 0.09 0.09 0.06 0.15 0.03 0.00 0.00 0.00 0.00 0.00 0.00 0.00
0.19 0.15 0.19 0.21 0.26 0.23 0.29 0.30 0.25 0.28 0.31 0.26 0.24 0.19 0.17 0.17 0.13 0.07 0.04 0.02 0.01 0.00 0.00 0.00 0.00 0.00 0.00 0.00 0.00 0.00 0.00 0.02 0.04 0.06 0.05 0.03 0.00 0.00 0.00 0.00 0.01 0.01 0.00 0.00
0.17 0.14 0.15 0.15 0.14 0.23 0.28 0.20 0.19 0.22 0.24 0.21 0.13 0.11 0.07 0.07 0.04 0.03 0.01 0.00 0.00 0.00 0.01 0.03 0.03 0.02 0.01 0.00 0.00 0.00 0.00 0.01 0.12 0.17 0.30 0.17 0.01 0.00 0.00 0.00 0.06 0.01 0.00 0.00
0.15 0.09 0.11 0.13 0.10 0.13 0.20 0.18 0.08 0.06 0.06 0.05 0.02 0.03 0.04 0.01 0.00 0.01 0.01 0.01 0.00 0.01 0.02 0.04 0.04 0.03 0.01 0.01 0.01 0.01 0.02 0.05 0.08 0.08 0.11 0.04 0.00 0.00 0.00 0.01 0.01 0.00 0.01 0.02
0.07 0.06 0.04 0.04 0.05 0.04 0.05 0.08 0.01 0.02 0.04 0.02 0.00 0.00 0.00 0.01 0.02 0.04 0.06 0.04 0.03 0.04 0.06 0.06 0.05 0.04 0.01 0.01 0.00 0.01 0.02 0.03 0.04 0.06 0.07 0.03 0.00 0.00 0.01 0.01 0.00 0.00 0.00 0.00
0.02 0.01 0.01 0.01 0.02 0.05 0.03 0.08 0.02 0.01 0.05 0.01 0.00 0.00 0.00 0.00 0.01 0.04 0.06 0.05 0.04 0.06 0.10 0.09 0.10 0.07 0.05 0.04 0.02 0.00 0.01 0.02 0.03 0.04 0.02 0.00 0.00 0.00 0.00 0.00 0.00 0.00 0.00 0.00
0.00 0.00 0.00 0.00 0.00 0.03 0.04 0.16 0.12 0.04 0.07 0.04 0.01 0.00 0.00 0.00 0.00 0.00 0.02 0.01 0.03 0.07 0.09 0.15 0.13 0.09 0.04 0.04 0.02 0.01 0.00 0.00 0.02 0.02 0.00 0.00 0.00 0.00 0.00 0.00 0.00 0.00 0.00 0.00
0.00 0.00 0.00 0.01 0.04 0.05 0.03 0.07 0.10 0.10 0.23 0.13 0.02 0.01 0.00 0.00 0.00 0.00 0.00 0.01 0.04 0.06 0.11 0.17 0.11 0.05 0.03 0.02 0.02 0.01 0.01 0.01 0.02 0.02 0.00 0.01 0.00 0.00 0.00 0.00 0.00 0.01 0.01 0.01
0.00 0.00 0.00 0.00 0.00 0.03 0.08 0.16 0.16 0.21 0.19 0.15 0.03 0.01 0.00 0.00 0.00 0.01 0.05 0.04 0.06 0.12 0.17 0.12 0.04 0.02 0.06 0.03 0.03 0.01 0.00 0.01 0.04 0.02 0.00 0.04 0.01 0.01 0.00 0.01 0.01 0.01 0.01 0.00
0.00 0.00 0.00 0.00 0.01 0.03 0.12 0.11 0.09 0.05 0.04 0.09 0.01 0.00 0.00 0.00 0.00 0.00 0.02 0.05 0.08 0.12 0.12 0.06 0.02 0.01 0.12 0.11 0.01 0.00 0.00 0.00 0.00 0.00 0.02 0.06 0.05 0.01 0.00 0.01 0.00 0.00 0.01 0.01
0.00 0.00 0.00 0.04 0.02 0.09 0.12 0.07 0.14 0.01 0.03 0.06 0.02 0.01 0.00 0.01 0.02 0.02 0.01 0.01 0.03 0.08 0.11 0.05 0.01 0.01 0.12 0.12 0.02 0.00 0.00 0.00 0.00 0.03 0.16 0.15 0.03 0.01 0.00 0.00 0.00 0.01 0.01 0.01
0.00 0.00 0.01 0.03 0.00 0.02 0.04 0.01 0.00 0.01 0.04 0.03 0.03 0.01 0.01 0.01 0.03 0.04 0.05 0.07 0.06 0.08 0.04 0.01 0.01 0.01 0.06 0.08 0.00 0.00 0.00 0.00 0.03 0.06 0.07 0.12 0.10 0.06 0.03 0.03 0.05 0.09 0.05 0.02
0.01 0.02 0.01 0.02 0.07 0.13 0.07 0.00 0.00 0.02 0.07 0.08 0.03 0.01 0.03 0.02 0.01 0.02 0.05 0.06 0.06 0.03 0.06 0.01 0.04 0.04 0.07 0.01 0.00 0.01 0.02 0.14 0.21 0.13 0.06 0.03 0.05 0.06 0.05 0.04 0.07 0.10 0.05 0.02
0.02 0.02 0.05 0.03 0.04 0.01 0.00 0.02 0.05 0.06 0.08 0.05 0.02 0.00 0.01 0.02 0.06 0.08 0.07 0.10 0.05 0.07 0.03 0.04 0.17 0.05 0.01 0.02 0.06 0.12 0.19 0.21 0.18 0.28 0.12 0.04 0.07 0.05 0.04 0.06 0.12 0.18 0.13 0.07
0.03 0.05 0.08 0.02 0.00 0.01 0.02 0.03 0.04 0.05 0.06 0.02 0.00 0.01 0.05 0.06 0.12 0.20 0.14 0.14 0.16 0.21 0.04 0.12 0.14 0.28 0.22 0.13 0.14 0.15 0.16 0.11 0.07 0.09 0.05 0.09 0.28 0.33 0.20 0.12 0.11 0.16 0.12 0.10
0.04 0.05 0.03 0.02 0.01 0.02 0.02 0.02 0.03 0.03 0.02 0.03 0.06 0.12 0.17 0.15 0.22 0.38 0.25 0.24 0.18 0.09 0.12 0.26 0.34 0.50 0.13 0.08 0.06 0.04 0.05 0.04 0.05 0.08 0.23 0.21 0.26 0.29 0.24 0.19 0.17 0.12 0.10 0.09
0.01 0.03 0.07 0.04 0.03 0.02 0.01 0.00 0.02 0.04 0.07 0.04 0.08 0.21 0.34 0.28 0.27 0.32 0.18 0.17 0.06 0.08 0.18 0.32 0.58 0.16 0.02 0.03 0.03 0.01 0.00 0.02 0.04 0.13 0.12 0.16 0.14 0.12 0.16 0.10 0.07 0.06 0.04 0.06
0.10 0.02 0.00 0.00 0.01 0.00 0.00 0.01 0.10 0.11 0.03 0.00 0.05 0.21 0.34 0.25 0.41 0.13 0.14 0.05 0.10 0.18 0.35 0.56 0.18 0.02 0.01 0.01 0.01 0.01 0.01 0.00 0.03 0.10 0.08 0.08 0.12 0.07 0.05 0.06 0.05 0.05 0.04 0.04
0.09 0.02 0.00 0.00 0.00 0.00 0.01 0.01 0.00 0.01 0.00 0.01 0.04 0.07 0.21 0.22 0.30 0.18 0.21 0.23 0.32 0.50 0.42 0.26 0.10 0.01 0.00 0.01 0.01 0.01 0.01 0.00 0.02 0.05 0.06 0.06 0.07 0.04 0.02 0.02 0.02 0.03 0.04 0.06
0.05 0.01 0.00 0.00 0.00 0.01 0.01 0.00 0.00 0.00 0.00 0.01 0.06 0.13 0.12 0.23 0.27 0.39 0.37 0.40 0.45 0.32 0.18 0.08 0.02 0.00 0.00 0.00 0.00 0.01 0.01 0.01 0.02 0.03 0.03 0.07 0.08 0.04 0.03 0.02 0.03 0.03 0.06 0.10
0.00 0.00 0.00 0.00 0.00 0.01 0.01 0.00 0.00 0.01 0.02 0.04 0.07 0.11 0.08 0.09 0.07 0.09 0.23 0.20 0.13 0.05 0.03 0.02 0.02 0.00 0.00 0.00 0.01 0.00 0.00 0.00 0.01 0.01 0.03 0.06 0.03 0.04 0.07 0.07 0.07 0.08 0.11 0.16

GFSNW_prec_precacc24_216.txt.gz
Total_Precipitation_Accumulation
0.67 0.76 0.85 0.87 1.03 1.34 1.85 2.09 2.01 1.67 1.42 2.12 2.11 0.95 0.18 0.05 0.01 0.00 0.01 0.01 0.02 0.01 0.00 0.00 0.00 0.00 0.00 0.00 0.00 0.01 0.00 0.02 0.01 0.00 0.00 0.00 0.01 0.04 0.10 0.20 0.24 0.17 0.19 0.12
0.48 0.56 0.70 0.64 0.85 0.91 1.42 1.91 2.08 1.70 1.62 1.49 0.91 0.30 0.09 0.06 0.05 0.02 0.02 0.03 0.06 0.04 0.02 0.04 0.02 0.01 0.00 0.00 0.00 0.01 0.01 0.04 0.04 0.00 0.00 0.02 0.05 0.07 0.09 0.13 0.21 0.17 0.32 0.13
0.33 0.45 0.50 0.58 0.69 0.68 0.95 1.51 1.88 1.71 1.49 0.88 0.25 0.14 0.12 0.11 0.10 0.05 0.02 0.03 0.03 0.07 0.09 0.05 0.04 0.01 0.00 0.00 0.00 0.00 0.00 0.01 0.02 0.01 0.00 0.03 0.02 0.01 0.04 0.11 0.21 0.11 0.11 0.02
0.25 0.35 0.46 0.55 0.62 0.81 0.75 1.29 1.45 0.90 0.93 0.60 0.19 0.11 0.11 0.11 0.18 0.09 0.04 0.05 0.03 0.05 0.14 0.15 0.07 0.02 0.01 0.01 0.00 0.00 0.01 0.02 0.00 0.00 0.00 0.00 0.00 0.00 0.00 0.01 0.03 0.09 0.03 0.00
0.25 0.37 0.53 0.62 0.80 0.85 0.75 1.18 0.99 0.46 0.16 0.15 0.21 0.28 0.27 0.16 0.20 0.14 0.10 0.07 0.07 0.09 0.19 0.15 0.11 0.06 0.05 0.03 0.02 0.03 0.07 0.20 0.16 0.09 0.02 0.02 0.04 0.01 0.00 0.00 0.00 0.00 0.00 0.01
0.34 0.42 0.49 0.63 0.83 0.95 0.84 0.92 0.52 0.25 0.37 0.36 0.39 0.36 0.19 0.15 0.13 0.20 0.11 0.08 0.19 0.26 0.20 0.09 0.06 0.07 0.06 0.03 0.02 0.04 0.07 0.13 0.15 0.14 0.03 0.07 0.12 0.00 0.00 0.00 0.00 0.01 0.03 0.02
0.32 0.34 0.41 0.48 0.59 0.64 0.65 0.56 0.36 0.43 0.63 0.38 0.28 0.16 0.16 0.16 0.15 0.21 0.15 0.13 0.16 0.16 0.05 0.02 0.02 0.02 0.02 0.01 0.00 0.01 0.03 0.03 0.06 0.07 0.05 0.12 0.03 0.00 0.00 0.00 0.00 0.00 0.00 0.00
0.23 0.21 0.28 0.34 0.37 0.33 0.44 0.49 0.36 0.42 0.49 0.36 0.34 0.34 0.34 0.34 0.34 0.31 0.22 0.15 0.10 0.04 0.01 0.01 0.02 0.01 0.00 0.00 0.00 0.00 0.00 0.02 0.04 0.05 0.05 0.03 0.00 0.00 0.00 0.00 0.01 0.01 0.00 0.00
0.20 0.17 0.20 0.22 0.22 0.31 0.41 0.39 0.35 0.39 0.47 0.46 0.30 0.32 0.26 0.28 0.26 0.25 0.18 0.09 0.04 0.01 0.01 0.02 0.03 0.02 0.01 0.00 0.00 0.00 0.00 0.01 0.11 0.15 0.28 0.17 0.01 0.00 0.00 0.00 0.06 0.01 0.00 0.00
0.16 0.12 0.15 0.23 0.21 0.22 0.32 0.37 0.25 0.32 0.43 0.43 0.31 0.31 0.32 0.25 0.18 0.16 0.14 0.08 0.03 0.01 0.02 0.03 0.03 0.02 0.00 0.01 0.01 0.01 0.02 0.04 0.07 0.07 0.10 0.04 0.00 0.00 0.00 0.01 0.01 0.00 0.00 0.00
0.10 0.10 0.10 0.13 0.16 0.14 0.18 0.27 0.23 0.28 0.33 0.31 0.23 0.20 0.15 0.10 0.07 0.11 0.14 0.06 0.05 0.05 0.06 0.06 0.05 0.04 0.01 0.01 0.00 0.01 0.02 0.03 0.04 0.06 0.07 0.03 0.00 0.00 0.01 0.01 0.00 0.00 0.00 0.00
0.08 0.05 0.03 0.06 0.07 0.06 0.07 0.16 0.10 0.11 0.17 0.15 0.07 0.04 0.02 0.01 0.02 0.04 0.06 0.05 0.04 0.06 0.09 0.08 0.08 0.06 0.04 0.03 0.02 0.00 0.01 0.02 0.03 0.03 0.02 0.00 0.00 0.00 0.00 0.00 0.00 0.00 0.00 0.00
0.04 0.02 0.01 0.02 0.02 0.01 0.03 0.16 0.12 0.06 0.07 0.07 0.04 0.02 0.00 0.00 0.00 0.00 0.02 0.01 0.03 0.07 0.08 0.13 0.12 0.08 0.04 0.04 0.02 0.01 0.00 0.00 0.01 0.02 0.00 0.00 0.00 0.00 0.00 0.00 0.00 0.00 0.00 0.00
0.01 0.00 0.00 0.00 0.00 0.00 0.01 0.06 0.09 0.06 0.07 0.06 0.02 0.01 0.00 0.00 0.00 0.00 0.00 0.01 0.04 0.06 0.10 0.15 0.09 0.04 0.02 0.02 0.01 0.01 0.01 0.01 0.02 0.02 0.00 0.01 0.00 0.00 0.00 0.00 0.00 0.01 0.01 0.01
0.00 0.00 0.00 0.00 0.00 0.01 0.05 0.14 0.14 0.10 0.09 0.13 0.03 0.01 0.00 0.00 0.00 0.01 0.05 0.04 0.05 0.11 0.14 0.09 0.02 0.01 0.04 0.02 0.03 0.00 0.00 0.01 0.04 0.02 0.00 0.03 0.01 0.01 0.00 0.01 0.01 0.01 0.01 0.00
0.00 0.00 0.00 0.00 0.00 0.01 0.11 0.10 0.08 0.05 0.04 0.06 0.01 0.00 0.00 0.00 0.00 0.00 0.02 0.05 0.07 0.12 0.10 0.04 0.01 0.00 0.08 0.09 0.01 0.00 0.00 0.00 0.00 0.00 0.02 0.06 0.05 0.01 0.00 0.01 0.00 0.00 0.01 0.01
0.00 0.00 0.00 0.01 0.01 0.08 0.12 0.07 0.14 0.00 0.03 0.05 0.02 0.01 0.00 0.01 0.02 0.02 0.01 0.01 0.03 0.07 0.08 0.02 0.00 0.01 0.09 0.10 0.01 0.00 0.00 0.00 0.00 0.03 0.16 0.15 0.03 0.01 0.00 0.00 0.00 0.01 0.01 0.01
0.00 0.00 0.00 0.01 0.00 0.02 0.04 0.01 0.00 0.01 0.04 0.03 0.03 0.01 0.01 0.01 0.03 0.04 0.05 0.07 0.06 0.05 0.02 0.01 0.00 0.00 0.04 0.06 0.00 0.00 0.00 0.00 0.03 0.06 0.07 0.12 0.10 0.06 0.03 0.03 0.05 0.09 0.05 0.02
0.00 0.01 0.00 0.02 0.07 0.13 0.07 0.00 0.00 0.02 0.06 0.08 0.03 0.01 0.03 0.02 0.01 0.02 0.05 0.06 0.04 0.02 0.04 0.01 0.03 0.03 0.05 0.00 0.00 0.01 0.02 0.14 0.19 0.11 0.05 0.03 0.05 0.06 0.05 0.04 0.07 0.10 0.05 0.02
0.01 0.02 0.05 0.03 0.04 0.01 0.00 0.02 0.04 0.03 0.05 0.04 0.01 0.00 0.01 0.02 0.06 0.08 0.07 0.10 0.05 0.06 0.02 0.04 0.16 0.04 0.01 0.02 0.06 0.11 0.15 0.15 0.14 0.24 0.11 0.04 0.07 0.05 0.04 0.06 0.12 0.17 0.12 0.07
0.03 0.05 0.08 0.02 0.00 0.01 0.02 0.02 0.03 0.04 0.04 0.01 0.00 0.01 0.04 0.06 0.11 0.17 0.13 0.12 0.14 0.18 0.04 0.10 0.12 0.27 0.21 0.11 0.08 0.06 0.07 0.07 0.06 0.09 0.04 0.06 0.26 0.32 0.20 0.12 0.10 0.13 0.10 0.09
0.04 0.05 0.03 0.02 0.00 0.02 0.01 0.02 0.02 0.02 0.02 0.03 0.06 0.11 0.15 0.12 0.16 0.28 0.19 0.19 0.13 0.07 0.11 0.21 0.33 0.46 0.06 0.02 0.01 0.01 0.02 0.04 0.04 0.02 0.10 0.15 0.21 0.28 0.23 0.18 0.17 0.12 0.09 0.09
0.01 0.03 0.07 0.04 0.02 0.01 0.01 0.00 0.01 0.05 0.06 0.04 0.05 0.14 0.22 0.20 0.20 0.25 0.15 0.14 0.05 0.09 0.17 0.28 0.45 0.09 0.00 0.00 0.01 0.00 0.00 0.02 0.01 0.02 0.08 0.10 0.12 0.11 0.15 0.10 0.07 0.06 0.04 0.05
0.10 0.02 0.00 0.00 0.01 0.00 0.00 0.01 0.10 0.12 0.03 0.00 0.02 0.09 0.19 0.16 0.33 0.10 0.11 0.04 0.08 0.14 0.27 0.42 0.12 0.00 0.00 0.00 0.00 0.00 0.00 0.00 0.00 0.02 0.05 0.06 0.09 0.06 0.05 0.06 0.05 0.05 0.04 0.04
0.09 0.02 0.00 0.00 0.00 0.00 0.01 0.01 0.00 0.01 0.00 0.01 0.03 0.05 0.12 0.15 0.24 0.14 0.17 0.18 0.22 0.34 0.33 0.19 0.05 0.00 0.00 0.00 0.00 0.00 0.01 0.00 0.01 0.01 0.02 0.05 0.07 0.04 0.02 0.02 0.02 0.03 0.04 0.05
0.05 0.01 0.00 0.00 0.00 0.01 0.01 0.00 0.00 0.00 0.00 0.01 0.05 0.10 0.10 0.15 0.23 0.31 0.26 0.28 0.33 0.28 0.15 0.06 0.01 0.00 0.00 0.00 0.00 0.00 0.01 0.00 0.00 0.01 0.01 0.06 0.07 0.04 0.03 0.02 0.03 0.03 0.04 0.08
0.00 0.00 0.00 0.00 0.00 0.01 0.01 0.00 0.00 0.01 0.02 0.03 0.06 0.08 0.08 0.08 0.07 0.06 0.11 0.12 0.10 0.04 0.03 0.02 0.02 0.00 0.00 0.00 0.00 0.00 0.00 0.00 0.00 0.00 0.00 0.02 0.02 0.01 0.01 0.03 0.04 0.05 0.09 0.14

GFSNW_prec_precacc24_219.txt.gz
Total_Precipitation_Accumulation
0.67 0.76 0.85 0.87 1.04 1.42 2.26 2.87 3.06 2.41 1.84 2.81 2.85 1.24 0.20 0.05 0.01 0.00 0.01 0.01 0.02 0.01 0.00 0.00 0.00 0.00 0.00 0.00 0.00 0.01 0.00 0.02 0.01 0.00 0.00 0.00 0.00 0.02 0.04 0.07 0.09 0.07 0.11 0.08
0.49 0.57 0.70 0.65 0.86 1.01 1.78 2.66 3.02 2.45 2.20 2.03 1.29 0.37 0.09 0.06 0.05 0.02 0.02 0.03 0.06 0.04 0.02 0.04 0.02 0.01 0.00 0.00 0.00 0.01 0.00 0.04 0.04 0.01 0.00 0.00 0.03 0.03 0.05 0.07 0.12 0.09 0.21 0.08
0.34 0.46 0.51 0.59 0.70 0.78 1.28 2.18 2.64 2.51 2.42 1.34 0.31 0.15 0.12 0.11 0.10 0.05 0.03 0.05 0.07 0.08 0.09 0.05 0.04 0.01 0.00 0.00 0.00 0.00 0.00 0.01 0.02 0.01 0.00 0.01 0.01 0.01 0.03 0.07 0.14 0.09 0.07 0.01
0.26 0.37 0.47 0.56 0.62 0.93 1.12 1.94 1.99 1.48 1.59 1.00 0.24 0.10 0.11 0.11 0.18 0.09 0.04 0.07 0.05 0.06 0.15 0.16 0.08 0.02 0.01 0.01 0.00 0.00 0.01 0.02 0.00 0.00 0.00 0.00 0.00 0.00 0.00 0.01 0.02 0.07 0.02 0.00
0.27 0.39 0.56 0.64 0.81 1.00 1.14 1.62 1.44 0.72 0.26 0.20 0.21 0.28 0.27 0.15 0.19 0.13 0.08 0.05 0.05 0.08 0.22 0.15 0.10 0.05 0.05 0.02 0.01 0.02 0.04 0.17 0.13 0.08 0.02 0.02 0.04 0.01 0.00 0.00 0.00 0.00 0.00 0.01
0.35 0.43 0.52 0.65 0.84 1.12 1.26 1.27 0.80 0.39 0.45 0.41 0.42 0.38 0.20 0.14 0.12 0.19 0.10 0.08 0.23 0.34 0.29 0.13 0.11 0.11 0.10 0.05 0.01 0.02 0.02 0.08 0.11 0.12 0.02 0.05 0.09 0.00 0.00 0.00 0.00 0.01 0.03 0.02
0.33 0.36 0.45 0.51 0.61 0.75 0.89 0.74 0.49 0.68 0.88 0.53 0.36 0.18 0.16 0.16 0.16 0.21 0.16 0.17 0.28 0.32 0.16 0.15 0.23 0.20 0.15 0.06 0.01 0.00 0.01 0.01 0.05 0.06 0.03 0.08 0.01 0.00 0.00 0.00 0.00 0.00 0.00 0.00
0.24 0.23 0.33 0.42 0.46 0.44 0.63 0.64 0.40 0.53 0.69 0.48 0.38 0.38 0.39 0.41 0.45 0.47 0.35 0.33 0.27 0.22 0.18 0.25 0.26 0.16 0.08 0.03 0.00 0.00 0.00 0.01 0.03 0.04 0.04 0.02 0.00 0.00 0.00 0.00 0.01 0.01 0.00 0.00
0.20 0.17 0.22 0.31 0.38 0.43 0.56 0.57 0.40 0.42 0.56 0.57 0.37 0.43 0.38 0.45 0.47 0.49 0.42 0.29 0.22 0.24 0.26 0.20 0.14 0.06 0.02 0.01 0.00 0.00 0.00 0.01 0.09 0.14 0.27 0.16 0.01 0.00 0.00 0.00 0.04 0.01 0.00 0.00
0.16 0.12 0.16 0.27 0.32 0.30 0.43 0.53 0.32 0.34 0.52 0.57 0.42 0.48 0.50 0.40 0.37 0.41 0.40 0.38 0.31 0.16 0.12 0.12 0.07 0.02 0.00 0.01 0.01 0.00 0.01 0.02 0.04 0.05 0.07 0.03 0.00 0.00 0.00 0.01 0.01 0.00 0.00 0.00
0.10 0.11 0.10 0.15 0.22 0.21 0.25 0.38 0.31 0.29 0.41 0.50 0.42 0.37 0.32 0.28 0.20 0.27 0.39 0.21 0.19 0.14 0.14 0.11 0.06 0.04 0.01 0.01 0.00 0.01 0.01 0.02 0.02 0.04 0.05 0.02 0.00 0.00 0.01 0.01 0.00 0.00 0.00 0.00
0.09 0.07 0.05 0.08 0.13 0.13 0.11 0.21 0.16 0.14 0.26 0.32 0.23 0.20 0.17 0.14 0.12 0.14 0.20 0.15 0.08 0.09 0.11 0.08 0.06 0.05 0.03 0.02 0.01 0.00 0.01 0.01 0.02 0.02 0.02 0.00 0.00 0.00 0.00 0.00 0.00 0.00 0.00 0.00
0.15 0.12 0.07 0.06 0.12 0.09 0.06 0.14 0.12 0.08 0.14 0.22 0.19 0.18 0.12 0.10 0.08 0.06 0.16 0.07 0.04 0.07 0.06 0.08 0.08 0.05 0.02 0.02 0.01 0.01 0.00 0.00 0.01 0.01 0.00 0.00 0.00 0.00 0.00 0.00 0.00 0.00 0.00 0.00
0.22 0.19 0.10 0.06 0.08 0.07 0.03 0.04 0.07 0.05 0.04 0.10 0.13 0.06 0.05 0.03 0.03 0.03 0.02 0.01 0.02 0.04 0.06 0.09 0.05 0.02 0.01 0.01 0.01 0.00 0.00 0.00 0.01 0.01 0.00 0.00 0.00 0.00 0.00 0.00 0.00 0.00 0.01 0.01
0.19 0.14 0.06 0.04 0.05 0.05 0.05 0.06 0.11 0.08 0.03 0.07 0.06 0.02 0.01 0.01 0.00 0.01 0.05 0.04 0.04 0.07 0.08 0.05 0.01 0.00 0.02 0.01 0.01 0.00 0.00 0.00 0.02 0.01 0.00 0.02 0.00 0.01 0.00 0.01 0.00 0.00 0.01 0.00
0.03 0.02 0.01 0.01 0.01 0.02 0.07 0.09 0.07 0.04 0.01 0.04 0.04 0.03 0.01 0.00 0.00 0.00 0.02 0.05 0.06 0.07 0.06 0.02 0.01 0.00 0.05 0.05 0.00 0.00 0.00 0.00 0.00 0.00 0.02 0.06 0.05 0.01 0.00 0.01 0.00 0.00 0.01 0.01
0.00 0.00 0.00 0.00 0.00 0.03 0.06 0.04 0.12 0.00 0.01 0.03 0.02 0.01 0.00 0.01 0.02 0.02 0.01 0.01 0.02 0.05 0.05 0.01 0.00 0.00 0.04 0.05 0.01 0.00 0.00 0.00 0.00 0.03 0.16 0.15 0.03 0.01 0.00 0.00 0.00 0.01 0.01 0.01
0.00 0.00 0.00 0.00 0.00 0.01 0.02 0.00 0.00 0.00 0.01 0.02 0.02 0.01 0.01 0.01 0.03 0.02 0.03 0.06 0.05 0.03 0.01 0.00 0.00 0.00 0.03 0.04 0.00 0.00 0.00 0.00 0.03 0.06 0.07 0.12 0.09 0.05 0.03 0.03 0.05 0.08 0.05 0.02
0.00 0.00 0.00 0.01 0.04 0.09 0.04 0.00 0.00 0.01 0.02 0.04 0.02 0.01 0.02 0.02 0.01 0.01 0.03 0.04 0.02 0.01 0.02 0.00 0.02 0.02 0.04 0.00 0.00 0.01 0.02 0.13 0.17 0.07 0.03 0.02 0.02 0.03 0.04 0.04 0.06 0.10 0.04 0.02
0.00 0.02 0.03 0.02 0.03 0.00 0.00 0.01 0.02 0.01 0.02 0.02 0.01 0.00 0.01 0.02 0.06 0.08 0.05 0.07 0.04 0.04 0.02 0.03 0.13 0.03 0.00 0.01 0.03 0.08 0.10 0.07 0.06 0.15 0.09 0.04 0.06 0.04 0.03 0.06 0.11 0.17 0.12 0.07
0.02 0.04 0.07 0.02 0.00 0.00 0.01 0.01 0.01 0.03 0.02 0.01 0.00 0.01 0.03 0.05 0.09 0.12 0.10 0.09 0.11 0.15 0.03 0.06 0.09 0.25 0.14 0.04 0.03 0.01 0.00 0.01 0.03 0.07 0.03 0.03 0.16 0.24 0.15 0.09 0.09 0.13 0.09 0.09
0.03 0.05 0.03 0.01 0.00 0.01 0.01 0.01 0.01 0.01 0.01 0.03 0.05 0.09 0.12 0.10 0.14 0.21 0.15 0.15 0.10 0.06 0.08 0.18 0.29 0.35 0.02 0.00 0.00 0.00 0.00 0.01 0.03 0.01 0.01 0.07 0.13 0.21 0.18 0.16 0.16 0.11 0.09 0.08
0.01 0.03 0.06 0.03 0.02 0.01 0.01 0.00 0.01 0.04 0.05 0.03 0.03 0.05 0.11 0.12 0.15 0.20 0.12 0.10 0.04 0.08 0.16 0.23 0.32 0.02 0.00 0.00 0.00 0.00 0.00 0.01 0.01 0.00 0.01 0.04 0.06 0.09 0.14 0.09 0.06 0.05 0.04 0.05
0.09 0.02 0.00 0.00 0.01 0.00 0.00 0.01 0.09 0.11 0.03 0.00 0.01 0.04 0.10 0.09 0.26 0.08 0.09 0.04 0.07 0.11 0.18 0.35 0.11 0.00 0.00 0.00 0.00 0.00 0.00 0.00 0.00 0.00 0.00 0.03 0.06 0.04 0.04 0.05 0.05 0.05 0.04 0.03
0.09 0.02 0.00 0.00 0.00 0.01 0.01 0.01 0.01 0.01 0.00 0.01 0.03 0.03 0.06 0.09 0.18 0.13 0.15 0.14 0.14 0.24 0.29 0.20 0.06 0.00 0.00 0.00 0.00 0.00 0.00 0.00 0.00 0.00 0.00 0.03 0.05 0.04 0.02 0.02 0.02 0.03 0.03 0.04
0.04 0.01 0.00 0.00 0.01 0.02 0.02 0.02 0.02 0.01 0.01 0.01 0.04 0.07 0.07 0.10 0.18 0.26 0.17 0.15 0.22 0.25 0.16 0.07 0.02 0.00 0.00 0.00 0.00 0.00 0.00 0.00 0.00 0.00 0.00 0.01 0.03 0.03 0.02 0.02 0.02 0.02 0.03 0.06
0.00 0.00 0.00 0.00 0.01 0.02 0.02 0.02 0.02 0.02 0.03 0.02 0.03 0.04 0.04 0.06 0.07 0.04 0.07 0.09 0.10 0.06 0.04 0.03 0.03 0.00 0.00 0.00 0.00 0.00 0.00 0.00 0.00 0.00 0.00 0.00 0.01 0.01 0.01 0.01 0.02 0.04 0.08 0.14

GFSNW_prec_precacc24_222.txt.gz
Total_Precipitation_Accumulation
0.68 0.77 0.86 0.88 1.05 1.43 2.36 3.41 3.97 3.21 2.45 3.80 3.59 1.61 0.27 0.05 0.01 0.01 0.02 0.02 0.02 0.01 0.00 0.00 0.00 0.00 0.00 0.00 0.00 0.00 0.00 0.02 0.00 0.00 0.00 0.00 0.00 0.02 0.03 0.04 0.02 0.04 0.08 0.05
0.50 0.58 0.72 0.66 0.88 1.02 1.84 3.16 3.73 3.08 2.78 2.84 1.79 0.50 0.10 0.06 0.06 0.05 0.04 0.04 0.06 0.05 0.02 0.04 0.02 0.01 0.00 0.00 0.00 0.00 0.00 0.02 0.03 0.00 0.00 0.00 0.00 0.01 0.04 0.06 0.09 0.08 0.17 0.06
0.35 0.47 0.53 0.61 0.71 0.80 1.31 2.53 3.20 3.19 3.34 1.92 0.42 0.16 0.13 0.13 0.13 0.08 0.05 0.05 0.09 0.11 0.11 0.06 0.04 0.01 0.00 0.00 0.00 0.00 0.00 0.01 0.01 0.00 0.00 0.00 0.00 0.00 0.01 0.04 0.11 0.07 0.05 0.01
0.28 0.38 0.48 0.59 0.64 0.96 1.16 2.26 2.35 1.98 2.39 1.65 0.41 0.11 0.11 0.11 0.18 0.10 0.05 0.08 0.07 0.08 0.16 0.17 0.11 0.02 0.01 0.01 0.00 0.00 0.01 0.02 0.00 0.00 0.00 0.00 0.00 0.00 0.00 0.00 0.01 0.06 0.02 0.00
0.28 0.41 0.59 0.69 0.87 1.06 1.20 1.85 1.68 0.95 0.47 0.32 0.26 0.29 0.29 0.16 0.19 0.13 0.07 0.05 0.04 0.08 0.21 0.15 0.12 0.06 0.06 0.02 0.00 0.01 0.04 0.13 0.10 0.07 0.01 0.02 0.04 0.01 0.00 0.00 0.00 0.00 0.00 0.01
0.37 0.45 0.53 0.69 0.91 1.22 1.34 1.41 0.94 0.47 0.52 0.47 0.45 0.40 0.20 0.14 0.12 0.19 0.09 0.07 0.26 0.39 0.34 0.16 0.17 0.19 0.19 0.09 0.05 0.11 0.14 0.12 0.08 0.11 0.01 0.04 0.06 0.00 0.00 0.00 0.00 0.01 0.03 0.02
0.34 0.38 0.48 0.59 0.69 0.79 0.92 0.80 0.57 0.85 1.03 0.60 0.42 0.20 0.16 0.16 0.16 0.21 0.16 0.21 0.39 0.40 0.20 0.16 0.32 0.38 0.40 0.26 0.18 0.15 0.16 0.09 0.09 0.12 0.05 0.08 0.01 0.00 0.00 0.00 0.00 0.00 0.00 0.00
0.26 0.25 0.37 0.49 0.54 0.49 0.64 0.68 0.50 0.65 0.81 0.56 0.40 0.38 0.39 0.42 0.49 0.57 0.49 0.47 0.39 0.26 0.24 0.51 0.60 0.45 0.32 0.22 0.11 0.06 0.03 0.05 0.05 0.05 0.05 0.01 0.00 0.00 0.00 0.00 0.00 0.00 0.00 0.00
0.22 0.20 0.26 0.36 0.45 0.48 0.58 0.61 0.47 0.48 0.62 0.62 0.38 0.43 0.41 0.59 0.69 0.76 0.60 0.36 0.30 0.34 0.51 0.51 0.37 0.19 0.09 0.04 0.02 0.03 0.03 0.03 0.08 0.16 0.26 0.14 0.01 0.00 0.00 0.00 0.01 0.00 0.00 0.00
0.19 0.15 0.19 0.30 0.39 0.38 0.44 0.58 0.42 0.39 0.56 0.62 0.47 0.55 0.64 0.56 0.50 0.53 0.57 0.58 0.59 0.37 0.28 0.29 0.20 0.09 0.01 0.01 0.00 0.02 0.05 0.07 0.05 0.04 0.05 0.02 0.00 0.00 0.00 0.00 0.00 0.00 0.00 0.00
0.12 0.12 0.11 0.17 0.31 0.28 0.29 0.42 0.39 0.34 0.42 0.53 0.48 0.46 0.46 0.44 0.30 0.38 0.58 0.38 0.39 0.31 0.29 0.22 0.15 0.05 0.02 0.01 0.00 0.00 0.02 0.04 0.03 0.04 0.04 0.01 0.00 0.00 0.00 0.00 0.00 0.00 0.00 0.00
0.10 0.07 0.06 0.09 0.22 0.26 0.15 0.24 0.26 0.25 0.27 0.36 0.30 0.29 0.24 0.20 0.23 0.27 0.32 0.28 0.17 0.16 0.18 0.15 0.07 0.03 0.01 0.01 0.01 0.00 0.00 0.01 0.01 0.01 0.01 0.00 0.00 0.00 0.00 0.00 0.00 0.00 0.00 0.00
0.15 0.12 0.07 0.06 0.18 0.30 0.13 0.13 0.15 0.23 0.23 0.26 0.24 0.28 0.25 0.21 0.16 0.15 0.41 0.31 0.15 0.13 0.09 0.07 0.06 0.04 0.01 0.02 0.01 0.00 0.00 0.00 0.00 0.00 0.00 0.00 0.00 0.00 0.00 0.00 0.00 0.00 0.00 0.00
0.25 0.21 0.12 0.08 0.18 0.26 0.13 0.05 0.09 0.13 0.16 0.18 0.22 0.10 0.10 0.12 0.14 0.16 0.12 0.06 0.04 0.03 0.03 0.05 0.05 0.02 0.01 0.00 0.00 0.00 0.00 0.00 0.00 0.00 0.00 0.00 0.00 0.00 0.00 0.00 0.00 0.00 0.01 0.01
0.38 0.28 0.18 0.16 0.27 0.26 0.20 0.09 0.08 0.07 0.07 0.12 0.16 0.06 0.06 0.06 0.07 0.07 0.08 0.05 0.05 0.07 0.05 0.04 0.03 0.00 0.01 0.00 0.00 0.00 0.00 0.00 0.00 0.00 0.00 0.00 0.00 0.01 0.00 0.00 0.00 0.00 0.01 0.00
0.34 0.33 0.25 0.17 0.16 0.15 0.12 0.17 0.14 0.05 0.01 0.02 0.09 0.15 0.07 0.01 0.02 0.03 0.03 0.06 0.07 0.05 0.03 0.01 0.00 0.00 0.01 0.01 0.00 0.00 0.00 0.00 0.00 0.00 0.02 0.06 0.05 0.01 0.00 0.01 0.00 0.00 0.01 0.01
0.26 0.33 0.35 0.34 0.31 0.27 0.20 0.10 0.10 0.03 0.01 0.01 0.02 0.05 0.06 0.02 0.01 0.01 0.01 0.01 0.01 0.02 0.02 0.00 0.00 0.00 0.01 0.01 0.00 0.00 0.00 0.00 0.00 0.03 0.16 0.14 0.03 0.01 0.00 0.00 0.00 0.00 0.01 0.01
0.06 0.05 0.07 0.09 0.09 0.09 0.08 0.02 0.00 0.00 0.00 0.01 0.02 0.04 0.03 0.01 0.02 0.01 0.00 0.03 0.02 0.01 0.00 0.00 0.00 0.00 0.02 0.03 0.00 0.00 0.00 0.00 0.03 0.05 0.05 0.08 0.04 0.02 0.01 0.01 0.02 0.04 0.02 0.01
0.00 0.00 0.00 0.00 0.03 0.07 0.04 0.01 0.00 0.00 0.01 0.01 0.01 0.02 0.02 0.00 0.00 0.00 0.00 0.01 0.01 0.00 0.00 0.00 0.01 0.01 0.02 0.00 0.00 0.01 0.02 0.10 0.11 0.01 0.00 0.00 0.00 0.00 0.00 0.01 0.04 0.08 0.03 0.01
0.00 0.00 0.01 0.01 0.01 0.00 0.00 0.00 0.01 0.00 0.00 0.00 0.00 0.00 0.00 0.01 0.02 0.04 0.03 0.03 0.02 0.03 0.01 0.02 0.09 0.02 0.00 0.00 0.02 0.03 0.01 0.01 0.01 0.05 0.04 0.02 0.03 0.02 0.01 0.03 0.07 0.12 0.10 0.06
0.01 0.02 0.04 0.00 0.00 0.00 0.00 0.00 0.00 0.01 0.01 0.00 0.00 0.00 0.02 0.02 0.04 0.07 0.05 0.05 0.07 0.11 0.02 0.05 0.08 0.19 0.04 0.01 0.01 0.00 0.00 0.00 0.01 0.04 0.02 0.01 0.06 0.13 0.09 0.07 0.05 0.08 0.08 0.08
0.01 0.02 0.01 0.00 0.00 0.00 0.00 0.00 0.00 0.00 0.00 0.02 0.02 0.04 0.06 0.06 0.09 0.14 0.11 0.11 0.07 0.05 0.06 0.15 0.20 0.15 0.00 0.00 0.00 0.00 0.00 0.00 0.00 0.00 0.00 0.01 0.05 0.13 0.10 0.11 0.12 0.09 0.08 0.06
0.00 0.01 0.02 0.01 0.00 0.00 0.00 0.00 0.00 0.01 0.02 0.02 0.02 0.02 0.03 0.07 0.11 0.15 0.09 0.07 0.04 0.07 0.14 0.18 0.18 0.01 0.00 0.00 0.00 0.00 0.00 0.00 0.00 0.00 0.00 0.00 0.03 0.06 0.09 0.06 0.04 0.05 0.04 0.04
0.04 0.01 0.00 0.00 0.00 0.00 0.01 0.01 0.07 0.08 0.02 0.01 0.01 0.02 0.05 0.06 0.18 0.06 0.07 0.03 0.06 0.10 0.10 0.24 0.11 0.01 0.00 0.00 0.00 0.00 0.00 0.00 0.00 0.00 0.00 0.00 0.02 0.03 0.03 0.04 0.04 0.04 0.04 0.03
0.06 0.01 0.00 0.00 0.00 0.01 0.01 0.01 0.01 0.02 0.01 0.01 0.01 0.01 0.03 0.06 0.13 0.10 0.13 0.11 0.09 0.14 0.23 0.22 0.08 0.01 0.00 0.00 0.00 0.00 0.00 0.00 0.00 0.00 0.00 0.00 0.00 0.01 0.01 0.01 0.01 0.02 0.02 0.03
0.02 0.00 0.00 0.01 0.01 0.02 0.03 0.04 0.03 0.01 0.00 0.00 0.01 0.02 0.04 0.06 0.12 0.20 0.12 0.06 0.09 0.19 0.17 0.09 0.03 0.01 0.00 0.00 0.00 0.00 0.00 0.00 0.00 0.00 0.00 0.00 0.00 0.00 0.01 0.00 0.01 0.01 0.02 0.03
0.00 0.00 0.00 0.01 0.01 0.03 0.04 0.04 0.04 0.02 0.03 0.02 0.01 0.01 0.01 0.03 0.05 0.03 0.03 0.04 0.10 0.09 0.05 0.05 0.05 0.01 0.01 0.00 0.00 0.00 0.00 0.00 0.00 0.00 0.00 0.00 0.00 0.00 0.00 0.01 0.01 0.02 0.04 0.07

GFSNW_prec_precacc24_225.txt.gz
Total_Precipitation_Accumulation
0.51 0.66 0.82 0.88 1.08 1.50 2.43 3.60 4.40 3.66 3.14 4.99 4.46 1.89 0.31 0.05 0.01 0.01 0.02 0.02 0.02 0.01 0.00 0.00 0.00 0.00 0.00 0.00 0.00 0.00 0.00 0.00 0.00 0.00 0.00 0.00 0.00 0.00 0.00 0.02 0.02 0.03 0.07 0.04
0.44 0.55 0.73 0.68 0.92 1.09 1.88 3.30 4.01 3.48 3.37 3.85 2.40 0.61 0.10 0.06 0.06 0.06 0.06 0.04 0.06 0.05 0.02 0.06 0.02 0.01 0.00 0.00 0.00 0.00 0.00 0.01 0.02 0.00 0.00 0.00 0.00 0.00 0.00 0.01 0.05 0.07 0.16 0.06
0.36 0.48 0.56 0.64 0.76 0.86 1.33 2.59 3.39 3.57 4.10 2.62 0.58 0.19 0.13 0.14 0.14 0.10 0.06 0.05 0.09 0.12 0.12 0.06 0.04 0.01 0.00 0.00 0.00 0.00 0.00 0.00 0.01 0.00 0.00 0.00 0.00 0.00 0.00 0.00 0.05 0.04 0.03 0.01
0.32 0.42 0.53 0.62 0.70 1.03 1.18 2.29 2.47 2.20 3.02 2.35 0.60 0.12 0.11 0.11 0.19 0.12 0.06 0.09 0.07 0.08 0.17 0.18 0.12 0.04 0.01 0.01 0.00 0.00 0.01 0.01 0.00 0.00 0.00 0.01 0.00 0.00 0.00 0.00 0.00 0.04 0.02 0.00
0.32 0.45 0.64 0.73 0.92 1.12 1.23 1.87 1.73 1.08 0.66 0.57 0.34 0.31 0.29 0.16 0.20 0.14 0.08 0.05 0.04 0.08 0.22 0.17 0.13 0.09 0.07 0.02 0.00 0.01 0.04 0.04 0.02 0.02 0.00 0.04 0.07 0.01 0.00 0.00 0.00 0.00 0.00 0.01
0.40 0.50 0.60 0.74 0.96 1.29 1.39 1.41 0.95 0.55 0.64 0.56 0.50 0.41 0.21 0.14 0.12 0.19 0.09 0.07 0.27 0.40 0.37 0.21 0.26 0.33 0.24 0.10 0.06 0.14 0.19 0.13 0.10 0.18 0.03 0.18 0.20 0.01 0.00 0.00 0.00 0.01 0.03 0.02
0.37 0.42 0.54 0.65 0.73 0.81 0.92 0.80 0.58 0.94 1.22 0.67 0.46 0.21 0.16 0.16 0.16 0.21 0.16 0.24 0.51 0.48 0.24 0.23 0.47 0.57 0.60 0.39 0.26 0.26 0.31 0.25 0.27 0.28 0.15 0.20 0.04 0.00 0.00 0.00 0.00 0.00 0.00 0.00
0.28 0.28 0.42 0.56 0.60 0.50 0.65 0.68 0.50 0.70 0.97 0.67 0.41 0.38 0.39 0.42 0.49 0.58 0.61 0.64 0.52 0.31 0.27 0.69 0.90 0.76 0.64 0.51 0.31 0.18 0.14 0.20 0.23 0.15 0.10 0.02 0.00 0.00 0.00 0.00 0.00 0.00 0.00 0.00
0.26 0.24 0.31 0.43 0.51 0.51 0.59 0.62 0.48 0.50 0.71 0.72 0.39 0.43 0.41 0.60 0.79 0.93 0.82 0.48 0.37 0.44 0.69 0.80 0.64 0.40 0.22 0.13 0.09 0.08 0.12 0.11 0.15 0.21 0.21 0.10 0.01 0.00 0.00 0.00 0.00 0.00 0.00 0.00
0.24 0.19 0.24 0.35 0.44 0.43 0.46 0.59 0.44 0.43 0.58 0.64 0.48 0.57 0.66 0.63 0.63 0.68 0.69 0.67 0.67 0.46 0.40 0.50 0.39 0.24 0.05 0.05 0.02 0.05 0.17 0.22 0.15 0.09 0.06 0.01 0.00 0.00 0.00 0.00 0.00 0.00 0.00 0.00
0.19 0.16 0.16 0.20 0.35 0.35 0.33 0.43 0.44 0.38 0.44 0.54 0.51 0.52 0.50 0.53 0.34 0.47 0.69 0.44 0.48 0.43 0.48 0.48 0.35 0.14 0.05 0.01 0.00 0.00 0.05 0.12 0.12 0.11 0.07 0.02 0.00 0.00 0.00 0.00 0.00 0.00 0.00 0.00
0.13 0.10 0.08 0.11 0.26 0.33 0.28 0.26 0.28 0.33 0.32 0.38 0.30 0.31 0.26 0.21 0.24 0.28 0.37 0.33 0.22 0.20 0.29 0.32 0.17 0.10 0.05 0.02 0.03 0.00 0.03 0.03 0.02 0.01 0.01 0.00 0.00 0.00 0.00 0.00 0.00 0.00 0.00 0.00
0.17 0.14 0.09 0.08 0.21 0.34 0.26 0.17 0.14 0.36 0.36 0.30 0.25 0.31 0.28 0.25 0.18 0.16 0.55 0.51 0.28 0.23 0.15 0.16 0.17 0.13 0.05 0.05 0.03 0.00 0.00 0.00 0.01 0.00 0.00 0.00 0.00 0.00 0.00 0.00 0.00 0.00 0.00 0.00
0.27 0.22 0.14 0.10 0.22 0.35 0.24 0.11 0.09 0.20 0.31 0.26 0.26 0.13 0.13 0.16 0.19 0.24 0.20 0.11 0.10 0.11 0.09 0.15 0.19 0.07 0.01 0.01 0.00 0.00 0.00 0.00 0.00 0.00 0.00 0.00 0.00 0.00 0.00 0.00 0.00 0.00 0.01 0.01
0.38 0.28 0.20 0.19 0.38 0.42 0.39 0.13 0.06 0.08 0.20 0.27 0.23 0.11 0.15 0.12 0.13 0.16 0.18 0.14 0.12 0.12 0.13 0.15 0.09 0.01 0.00 0.00 0.00 0.00 0.00 0.00 0.00 0.00 0.00 0.00 0.00 0.01 0.00 0.00 0.00 0.00 0.01 0.00
0.36 0.36 0.31 0.23 0.33 0.38 0.34 0.42 0.26 0.10 0.13 0.15 0.22 0.29 0.16 0.07 0.06 0.06 0.07 0.11 0.11 0.08 0.07 0.04 0.00 0.00 0.00 0.00 0.00 0.00 0.00 0.00 0.00 0.00 0.02 0.06 0.05 0.01 0.00 0.01 0.00 0.00 0.01 0.01
0.45 0.56 0.59 0.52 0.61 0.67 0.62 0.34 0.26 0.18 0.10 0.11 0.17 0.19 0.25 0.14 0.05 0.05 0.05 0.04 0.03 0.01 0.01 0.00 0.00 0.00 0.01 0.01 0.00 0.00 0.00 0.00 0.00 0.03 0.15 0.09 0.01 0.00 0.00 0.00 0.00 0.00 0.01 0.01
0.23 0.25 0.32 0.24 0.22 0.37 0.42 0.16 0.05 0.08 0.07 0.05 0.07 0.18 0.21 0.13 0.09 0.06 0.02 0.02 0.00 0.00 0.00 0.00 0.00 0.00 0.01 0.03 0.00 0.00 0.00 0.00 0.01 0.03 0.02 0.02 0.01 0.00 0.00 0.00 0.00 0.02 0.00 0.00
0.02 0.06 0.08 0.10 0.15 0.24 0.27 0.19 0.07 0.06 0.09 0.09 0.03 0.05 0.08 0.03 0.01 0.00 0.00 0.00 0.00 0.00 0.00 0.00 0.00 0.01 0.01 0.00 0.00 0.01 0.01 0.02 0.01 0.00 0.00 0.00 0.00 0.00 0.00 0.00 0.01 0.04 0.02 0.01
0.00 0.01 0.02 0.04 0.04 0.04 0.04 0.06 0.05 0.03 0.03 0.04 0.01 0.00 0.01 0.01 0.00 0.01 0.00 0.01 0.01 0.02 0.01 0.01 0.06 0.01 0.00 0.00 0.00 0.01 0.00 0.00 0.00 0.00 0.00 0.01 0.02 0.01 0.00 0.01 0.04 0.07 0.06 0.04
0.00 0.00 0.00 0.00 0.00 0.00 0.01 0.02 0.02 0.01 0.03 0.03 0.02 0.00 0.00 0.00 0.01 0.02 0.02 0.03 0.05 0.09 0.02 0.05 0.06 0.10 0.01 0.00 0.00 0.00 0.00 0.00 0.00 0.00 0.00 0.00 0.02 0.04 0.04 0.03 0.02 0.02 0.04 0.06
0.00 0.00 0.00 0.00 0.00 0.01 0.00 0.00 0.00 0.01 0.02 0.01 0.02 0.03 0.03 0.03 0.05 0.08 0.09 0.08 0.06 0.05 0.05 0.13 0.07 0.03 0.00 0.00 0.00 0.00 0.00 0.00 0.00 0.00 0.00 0.00 0.00 0.03 0.04 0.05 0.05 0.04 0.05 0.05
0.00 0.00 0.00 0.00 0.00 0.00 0.00 0.00 0.00 0.01 0.01 0.01 0.02 0.04 0.02 0.05 0.08 0.12 0.08 0.06 0.03 0.06 0.12 0.11 0.07 0.00 0.00 0.00 0.00 0.00 0.00 0.00 0.00 0.00 0.00 0.00 0.00 0.00 0.02 0.02 0.02 0.02 0.02 0.03
0.00 0.00 0.00 0.00 0.00 0.01 0.01 0.00 0.05 0.07 0.02 0.01 0.01 0.01 0.02 0.04 0.13 0.05 0.05 0.03 0.05 0.08 0.06 0.13 0.09 0.01 0.00 0.00 0.00 0.00 0.00 0.00 0.00 0.00 0.00 0.00 0.00 0.00 0.00 0.01 0.01 0.02 0.02 0.02
0.02 0.00 0.00 0.00 0.01 0.01 0.00 0.00 0.01 0.02 0.01 0.00 0.00 0.01 0.02 0.04 0.09 0.08 0.09 0.09 0.06 0.05 0.14 0.21 0.08 0.01 0.00 0.00 0.00 0.00 0.00 0.00 0.00 0.00 0.00 0.00 0.00 0.00 0.00 0.00 0.00 0.01 0.01 0.02
0.00 0.00 0.00 0.01 0.01 0.02 0.04 0.05 0.04 0.01 0.00 0.00 0.00 0.00 0.03 0.05 0.07 0.13 0.07 0.03 0.02 0.07 0.14 0.10 0.04 0.01 0.00 0.00 0.00 0.00 0.00 0.00 0.00 0.00 0.00 0.00 0.00 0.00 0.00 0.00 0.00 0.00 0.01 0.01
0.00 0.01 0.01 0.01 0.02 0.04 0.05 0.05 0.05 0.01 0.02 0.02 0.00 0.00 0.00 0.01 0.04 0.03 0.02 0.01 0.05 0.06 0.04 0.04 0.06 0.03 0.01 0.00 0.00 0.00 0.00 0.00 0.00 0.00 0.00 0.00 0.00 0.00 0.00 0.00 0.00 0.02 0.03 0.04

GFSNW_prec_precacc24_228.txt.gz
Total_Precipitation_Accumulation
0.36 0.49 0.65 0.70 0.94 1.38 2.37 3.51 4.39 3.65 3.33 6.01 5.66 2.34 0.41 0.05 0.01 0.01 0.04 0.03 0.02 0.01 0.00 0.00 0.00 0.00 0.00 0.00 0.00 0.00 0.00 0.00 0.00 0.00 0.00 0.00 0.00 0.00 0.00 0.00 0.00 0.00 0.04 0.03
0.35 0.40 0.57 0.56 0.88 1.08 1.84 3.27 4.00 3.54 3.58 4.66 3.40 0.84 0.10 0.06 0.06 0.08 0.12 0.05 0.06 0.05 0.02 0.06 0.02 0.01 0.00 0.00 0.00 0.00 0.00 0.00 0.01 0.01 0.00 0.00 0.00 0.00 0.00 0.00 0.00 0.01 0.07 0.02
0.36 0.40 0.46 0.58 0.76 0.84 1.29 2.59 3.42 3.66 4.36 3.15 1.04 0.28 0.13 0.16 0.16 0.13 0.13 0.06 0.09 0.12 0.12 0.06 0.04 0.01 0.00 0.00 0.00 0.00 0.00 0.00 0.01 0.01 0.00 0.00 0.00 0.00 0.00 0.00 0.03 0.03 0.01 0.00
0.34 0.43 0.56 0.66 0.73 1.05 1.17 2.32 2.50 2.28 3.30 2.85 0.98 0.20 0.11 0.12 0.22 0.16 0.10 0.10 0.08 0.09 0.17 0.18 0.12 0.04 0.01 0.01 0.00 0.00 0.01 0.01 0.00 0.00 0.00 0.01 0.00 0.00 0.00 0.00 0.00 0.04 0.02 0.00
0.40 0.53 0.73 0.80 0.96 1.15 1.23 1.88 1.75 1.09 0.79 0.75 0.57 0.40 0.31 0.16 0.21 0.15 0.09 0.05 0.04 0.08 0.22 0.17 0.13 0.09 0.07 0.02 0.00 0.01 0.04 0.03 0.00 0.02 0.00 0.02 0.04 0.00 0.00 0.00 0.00 0.00 0.00 0.01
0.52 0.61 0.68 0.78 1.01 1.34 1.41 1.42 0.96 0.57 0.70 0.69 0.60 0.52 0.23 0.15 0.12 0.19 0.09 0.07 0.27 0.40 0.37 0.21 0.27 0.36 0.26 0.10 0.06 0.14 0.19 0.13 0.09 0.16 0.04 0.22 0.21 0.01 0.00 0.00 0.00 0.00 0.02 0.00
0.49 0.54 0.61 0.70 0.81 0.86 0.93 0.81 0.58 0.96 1.26 0.78 0.57 0.26 0.17 0.16 0.16 0.21 0.16 0.24 0.59 0.55 0.28 0.26 0.54 0.68 0.75 0.52 0.32 0.28 0.35 0.30 0.35 0.43 0.30 0.45 0.16 0.00 0.00 0.00 0.00 0.00 0.00 0.00
0.37 0.38 0.50 0.62 0.68 0.52 0.65 0.68 0.50 0.71 1.01 0.70 0.43 0.39 0.39 0.42 0.49 0.59 0.67 0.71 0.62 0.34 0.29 0.78 1.11 0.97 0.87 0.78 0.57 0.34 0.23 0.29 0.45 0.34 0.25 0.07 0.00 0.00 0.00 0.00 0.00 0.00 0.00 0.00
0.30 0.34 0.40 0.51 0.62 0.54 0.59 0.62 0.48 0.50 0.73 0.75 0.40 0.44 0.41 0.60 0.81 1.02 1.05 0.64 0.53 0.57 0.85 0.98 0.84 0.55 0.33 0.25 0.21 0.22 0.27 0.30 0.37 0.45 0.26 0.06 0.00 0.00 0.00 0.00 0.00 0.00 0.00 0.00
0.25 0.26 0.34 0.49 0.60 0.48 0.46 0.59 0.44 0.43 0.59 0.65 0.52 0.58 0.67 0.64 0.74 0.81 0.85 0.82 0.84 0.59 0.55 0.67 0.55 0.37 0.09 0.07 0.03 0.09 0.27 0.35 0.30 0.24 0.13 0.02 0.00 0.00 0.00 0.00 0.00 0.00 0.00 0.00
0.19 0.17 0.22 0.37 0.57 0.47 0.34 0.43 0.45 0.39 0.44 0.55 0.55 0.69 0.59 0.58 0.41 0.54 0.79 0.51 0.57 0.51 0.60 0.64 0.49 0.22 0.07 0.01 0.00 0.00 0.08 0.19 0.21 0.20 0.15 0.03 0.00 0.00 0.00 0.00 0.00 0.00 0.00 0.00
0.20 0.13 0.13 0.22 0.45 0.49 0.33 0.26 0.29 0.34 0.33 0.39 0.31 0.41 0.45 0.28 0.25 0.29 0.39 0.35 0.25 0.21 0.33 0.42 0.24 0.14 0.06 0.02 0.03 0.00 0.04 0.04 0.04 0.02 0.01 0.00 0.00 0.00 0.00 0.00 0.00 0.00 0.00 0.00
0.22 0.17 0.12 0.18 0.40 0.49 0.35 0.18 0.14 0.38 0.37 0.32 0.29 0.33 0.33 0.35 0.21 0.17 0.58 0.56 0.31 0.23 0.15 0.20 0.26 0.21 0.08 0.07 0.04 0.01 0.01 0.02 0.01 0.01 0.00 0.00 0.00 0.00 0.00 0.00 0.00 0.00 0.00 0.00
0.31 0.26 0.18 0.17 0.32 0.48 0.34 0.14 0.10 0.21 0.38 0.29 0.32 0.22 0.18 0.19 0.23 0.28 0.22 0.13 0.10 0.13 0.13 0.25 0.36 0.14 0.04 0.01 0.00 0.00 0.00 0.00 0.00 0.00 0.00 0.00 0.00 0.00 0.00 0.00 0.00 0.00 0.00 0.00
0.46 0.35 0.25 0.24 0.46 0.57 0.48 0.18 0.17 0.11 0.26 0.35 0.27 0.18 0.26 0.21 0.16 0.17 0.18 0.16 0.16 0.18 0.26 0.34 0.24 0.06 0.01 0.00 0.00 0.00 0.00 0.00 0.00 0.00 0.00 0.00 0.00 0.01 0.00 0.00 0.00 0.00 0.01 0.00
0.38 0.40 0.35 0.28 0.42 0.47 0.44 0.57 0.40 0.27 0.19 0.29 0.32 0.36 0.25 0.18 0.16 0.11 0.15 0.20 0.24 0.26 0.26 0.18 0.05 0.01 0.01 0.01 0.00 0.00 0.00 0.00 0.00 0.00 0.01 0.05 0.04 0.01 0.00 0.00 0.00 0.00 0.00 0.01
0.46 0.59 0.62 0.58 0.66 0.76 0.76 0.48 0.34 0.26 0.18 0.22 0.30 0.30 0.35 0.22 0.15 0.18 0.19 0.15 0.15 0.14 0.10 0.03 0.00 0.00 0.01 0.01 0.00 0.00 0.00 0.00 0.00 0.02 0.08 0.02 0.00 0.00 0.00 0.00 0.00 0.00 0.00 0.01
0.27 0.27 0.34 0.30 0.28 0.49 0.69 0.34 0.13 0.15 0.17 0.20 0.19 0.33 0.37 0.24 0.19 0.17 0.10 0.08 0.06 0.04 0.03 0.01 0.00 0.01 0.02 0.02 0.00 0.00 0.00 0.00 0.00 0.00 0.00 0.00 0.00 0.00 0.00 0.00 0.00 0.01 0.00 0.00
0.15 0.14 0.13 0.18 0.21 0.40 0.61 0.48 0.23 0.19 0.25 0.25 0.11 0.12 0.19 0.12 0.09 0.05 0.04 0.01 0.01 0.00 0.00 0.00 0.00 0.01 0.01 0.00 0.00 0.00 0.00 0.00 0.00 0.00 0.00 0.00 0.00 0.00 0.00 0.00 0.00 0.01 0.01 0.00
0.06 0.05 0.05 0.21 0.22 0.17 0.23 0.27 0.20 0.16 0.20 0.16 0.06 0.02 0.06 0.05 0.03 0.02 0.02 0.01 0.01 0.01 0.01 0.01 0.04 0.01 0.00 0.00 0.00 0.00 0.00 0.00 0.00 0.00 0.00 0.00 0.01 0.00 0.00 0.00 0.01 0.03 0.03 0.02
0.00 0.01 0.01 0.05 0.02 0.01 0.03 0.10 0.12 0.07 0.08 0.08 0.07 0.01 0.03 0.02 0.03 0.02 0.02 0.03 0.04 0.07 0.02 0.04 0.04 0.02 0.00 0.00 0.00 0.00 0.00 0.00 0.00 0.00 0.00 0.00 0.00 0.00 0.00 0.00 0.00 0.01 0.01 0.03
0.00 0.00 0.00 0.00 0.00 0.01 0.01 0.02 0.02 0.03 0.05 0.05 0.07 0.07 0.05 0.05 0.04 0.05 0.07 0.07 0.05 0.04 0.05 0.10 0.02 0.01 0.00 0.00 0.00 0.00 0.00 0.00 0.00 0.00 0.00 0.00 0.00 0.00 0.00 0.00 0.00 0.01 0.02 0.02
0.00 0.00 0.00 0.01 0.01 0.00 0.00 0.00 0.00 0.02 0.02 0.04 0.05 0.08 0.03 0.03 0.06 0.10 0.07 0.05 0.03 0.05 0.10 0.06 0.03 0.00 0.00 0.00 0.00 0.00 0.00 0.00 0.00 0.00 0.00 0.00 0.00 0.00 0.00 0.00 0.00 0.00 0.00 0.01
0.00 0.00 0.00 0.00 0.00 0.01 0.01 0.00 0.03 0.05 0.02 0.03 0.02 0.01 0.02 0.02 0.08 0.04 0.04 0.03 0.04 0.07 0.04 0.05 0.07 0.01 0.00 0.00 0.00 0.00 0.00 0.00 0.00 0.00 0.00 0.00 0.00 0.00 0.00 0.00 0.00 0.00 0.00 0.00
0.00 0.00 0.00 0.00 0.01 0.01 0.00 0.00 0.01 0.01 0.01 0.01 0.01 0.01 0.02 0.03 0.06 0.06 0.05 0.06 0.05 0.02 0.03 0.12 0.07 0.01 0.00 0.00 0.00 0.00 0.00 0.00 0.00 0.00 0.00 0.00 0.00 0.00 0.00 0.00 0.00 0.00 0.00 0.00
0.00 0.00 0.00 0.01 0.01 0.02 0.04 0.05 0.04 0.01 0.00 0.00 0.00 0.00 0.02 0.03 0.04 0.08 0.03 0.02 0.01 0.03 0.04 0.06 0.03 0.01 0.00 0.00 0.00 0.00 0.00 0.00 0.00 0.00 0.00 0.00 0.00 0.00 0.00 0.00 0.00 0.00 0.00 0.00
0.00 0.01 0.01 0.01 0.02 0.04 0.05 0.05 0.05 0.01 0.02 0.02 0.00 0.00 0.00 0.01 0.04 0.02 0.02 0.01 0.05 0.06 0.03 0.03 0.04 0.03 0.01 0.00 0.00 0.00 0.00 0.00 0.00 0.00 0.00 0.00 0.00 0.00 0.00 0.00 0.00 0.02 0.03 0.03